Time,TemperatureF,DewpointF,PressureIn,WindDirection,WindDirectionDegrees,WindSpeedMPH,WindSpeedGustMPH,Humidity,HourlyPrecipIn,Conditions,Clouds,dailyrainin,SoftwareType,DateUTC
2013-06-29 00:01:00,65.0,48.0,-100.00,SE,141,9.0,16.0,53,0.00,,,-99.99,,2013-06-29 06:01:00,
2013-06-29 00:12:00,65.0,48.0,-100.00,SE,144,11.0,14.0,54,0.00,,,-99.99,,2013-06-29 06:12:00,
2013-06-29 00:43:00,64.0,48.0,-100.00,SSE,162,11.0,17.0,56,0.00,,,-99.99,,2013-06-29 06:43:00,
2013-06-29 01:02:00,65.0,48.0,-100.00,SSE,162,9.0,14.0,55,0.00,,,-99.99,,2013-06-29 07:02:00,
2013-06-29 01:43:00,63.0,48.0,-100.00,SE,141,9.0,12.0,56,0.00,,,-99.99,,2013-06-29 07:43:00,
2013-06-29 01:53:00,62.0,48.0,-100.00,SSE,151,7.0,10.0,60,0.00,,,-99.99,,2013-06-29 07:53:00,
2013-06-29 02:01:00,62.0,47.0,-100.00,SSE,165,9.0,11.0,59,0.00,,,-99.99,,2013-06-29 08:01:00,
2013-06-29 02:33:00,63.0,47.0,-100.00,SSE,160,8.0,12.0,57,0.00,,,-99.99,,2013-06-29 08:33:00,
2013-06-29 02:43:00,61.0,47.0,-100.00,South,169,6.0,9.0,59,0.00,,,-99.99,,2013-06-29 08:43:00,
2013-06-29 03:02:00,57.0,47.0,-100.00,NNW,332,3.0,4.0,70,0.00,,,-99.99,,2013-06-29 09:02:00,
2013-06-29 03:12:00,56.0,47.0,-100.00,NNE,23,1.0,3.0,72,0.00,,,-99.99,,2013-06-29 09:12:00,
2013-06-29 03:42:00,53.0,47.0,-100.00,SW,236,3.0,6.0,82,0.00,,,-99.99,,2013-06-29 09:42:00,
2013-06-29 04:43:00,55.0,47.0,-100.00,West,268,2.0,4.0,74,0.00,,,-99.99,,2013-06-29 10:43:00,
2013-06-29 05:01:00,55.0,46.0,-100.00,WNW,288,1.0,4.0,71,0.00,,,-99.99,,2013-06-29 11:01:00,
2013-06-29 05:11:00,55.0,46.0,-100.00,SSW,213,1.0,4.0,71,0.00,,,-99.99,,2013-06-29 11:11:00,
2013-06-29 05:43:00,56.0,47.0,-100.00,NW,323,2.0,4.0,73,0.00,,,-99.99,,2013-06-29 11:43:00,
2013-06-29 06:02:00,55.0,48.0,-100.00,NW,312,2.0,4.0,77,0.00,,,-99.99,,2013-06-29 12:02:00,
2013-06-29 06:12:00,55.0,46.0,-100.00,NW,322,2.0,4.0,71,0.00,,,-99.99,,2013-06-29 12:12:00,
2013-06-29 06:34:00,55.0,45.0,-100.00,WNW,295,6.0,9.0,69,0.00,,,-99.99,,2013-06-29 12:34:00,
2013-06-29 06:43:00,56.0,47.0,-100.00,West,274,5.0,7.0,70,0.00,,,-99.99,,2013-06-29 12:43:00,
2013-06-29 06:53:00,57.0,46.0,-100.00,West,270,4.0,6.0,66,0.00,,,-99.99,,2013-06-29 12:53:00,
2013-06-29 07:43:00,58.0,50.0,-100.00,NNW,336,2.0,4.0,74,0.00,,,-99.99,,2013-06-29 13:43:00,
2013-06-29 08:12:00,62.0,50.0,-100.00,NNW,328,2.0,4.0,65,0.00,,,-99.99,,2013-06-29 14:12:00,
2013-06-29 08:44:00,63.0,51.0,-100.00,North,10,4.0,6.0,64,0.00,,,-99.99,,2013-06-29 14:44:00,
2013-06-29 08:53:00,65.0,51.0,-100.00,North,356,2.0,4.0,60,0.00,,,-99.99,,2013-06-29 14:53:00,
2013-06-29 09:11:00,68.0,50.0,-100.00,NNW,346,2.0,4.0,54,0.00,,,-99.99,,2013-06-29 15:11:00,
2013-06-29 09:42:00,70.0,49.0,-100.00,ENE,62,3.0,7.0,48,0.00,,,-99.99,,2013-06-29 15:42:00,
2013-06-29 10:01:00,71.0,49.0,-100.00,ESE,102,2.0,6.0,45,0.00,,,-99.99,,2013-06-29 16:01:00,
2013-06-29 10:43:00,70.0,51.0,-100.00,North,8,7.0,11.0,52,0.00,,,-99.99,,2013-06-29 16:43:00,
2013-06-29 11:12:00,71.0,49.0,-100.00,NNE,13,6.0,11.0,45,0.00,,,-99.99,,2013-06-29 17:12:00,
2013-06-29 11:42:00,73.0,45.0,-100.00,North,8,4.0,7.0,37,0.00,,,-99.99,,2013-06-29 17:42:00,
2013-06-29 12:01:00,73.0,49.0,-100.00,North,4,6.0,10.0,42,0.00,,,-99.99,,2013-06-29 18:01:00,
2013-06-29 12:12:00,73.0,49.0,-100.00,NNE,21,6.0,10.0,42,0.00,,,-99.99,,2013-06-29 18:12:00,
2013-06-29 12:22:00,73.0,45.0,-100.00,NNE,24,7.0,11.0,35,0.00,,,-99.99,,2013-06-29 18:22:00,
2013-06-29 12:34:00,75.0,44.0,-100.00,NNE,18,6.0,10.0,34,0.00,,,-99.99,,2013-06-29 18:34:00,
2013-06-29 12:43:00,75.0,44.0,-100.00,NE,38,6.0,14.0,33,0.00,,,-99.99,,2013-06-29 18:43:00,
2013-06-29 13:12:00,76.0,42.0,-100.00,NNE,14,4.0,9.0,30,0.00,,,-99.99,,2013-06-29 19:12:00,
2013-06-29 13:43:00,77.0,40.0,-100.00,North,3,5.0,11.0,27,0.00,,,-99.99,,2013-06-29 19:43:00,
2013-06-29 14:02:00,77.0,37.0,-100.00,ENE,61,6.0,14.0,23,0.00,,,-99.99,,2013-06-29 20:02:00,
2013-06-29 14:11:00,77.0,36.0,-100.00,NE,34,7.0,14.0,22,0.00,,,-99.99,,2013-06-29 20:11:00,
2013-06-29 14:33:00,78.0,34.0,-100.00,North,350,9.0,16.0,20,0.00,,,-99.99,,2013-06-29 20:33:00,
2013-06-29 14:43:00,79.0,36.0,-100.00,North,352,7.0,15.0,21,0.00,,,-99.99,,2013-06-29 20:43:00,
2013-06-29 14:52:00,79.0,36.0,-100.00,NNW,343,5.0,12.0,21,0.00,,,-99.99,,2013-06-29 20:52:00,
2013-06-29 15:02:00,79.0,38.0,-100.00,North,6,9.0,14.0,23,0.00,,,-99.99,,2013-06-29 21:02:00,
2013-06-29 15:11:00,79.0,37.0,-100.00,NE,42,7.0,12.0,22,0.00,,,-99.99,,2013-06-29 21:11:00,
2013-06-29 15:22:00,78.0,38.0,-100.00,NNE,16,9.0,15.0,24,0.00,,,-99.99,,2013-06-29 21:22:00,
2013-06-29 15:32:00,78.0,36.0,-100.00,North,353,7.0,14.0,21,0.00,,,-99.99,,2013-06-29 21:32:00,
2013-06-29 15:42:00,79.0,35.0,-100.00,NNE,24,7.0,16.0,20,0.00,,,-99.99,,2013-06-29 21:42:00,
2013-06-29 15:52:00,79.0,37.0,-100.00,NNE,13,5.0,9.0,21,0.00,,,-99.99,,2013-06-29 21:52:00,
2013-06-29 16:01:00,79.0,36.0,-100.00,NE,51,8.0,14.0,21,0.00,,,-99.99,,2013-06-29 22:01:00,
2013-06-29 16:11:00,79.0,36.0,-100.00,NE,44,9.0,14.0,21,0.00,,,-99.99,,2013-06-29 22:11:00,
2013-06-29 16:43:00,81.0,36.0,-100.00,NE,48,6.0,9.0,20,0.00,,,-99.99,,2013-06-29 22:43:00,
2013-06-29 16:53:00,81.0,34.0,-100.00,NE,38,8.0,14.0,19,0.00,,,-99.99,,2013-06-29 22:53:00,
2013-06-29 17:12:00,78.0,36.0,-100.00,NE,44,9.0,13.0,22,0.00,,,-99.99,,2013-06-29 23:12:00,
2013-06-29 17:34:00,79.0,37.0,-100.00,ENE,64,7.0,12.0,22,0.00,,,-99.99,,2013-06-29 23:34:00,
2013-06-29 17:43:00,78.0,36.0,-100.00,NE,47,10.0,16.0,22,0.00,,,-99.99,,2013-06-29 23:43:00,
2013-06-29 18:11:00,78.0,39.0,-100.00,NE,42,4.0,9.0,25,0.00,,,-99.99,,2013-06-30 00:11:00,
2013-06-29 18:43:00,76.0,41.0,-100.00,East,83,12.0,17.0,28,0.00,,,-99.99,,2013-06-30 00:43:00,
2013-06-29 19:01:00,75.0,42.0,-100.00,ENE,76,13.0,19.0,30,0.00,,,-99.99,,2013-06-30 01:01:00,
2013-06-29 19:11:00,75.0,42.0,-100.00,East,89,11.0,17.0,31,0.00,,,-99.99,,2013-06-30 01:11:00,
2013-06-29 19:44:00,73.0,42.0,-100.00,East,90,13.0,19.0,32,0.00,,,-99.99,,2013-06-30 01:44:00,
2013-06-29 19:53:00,72.0,42.0,-100.00,East,96,12.0,17.0,33,0.00,,,-99.99,,2013-06-30 01:53:00,
2013-06-29 20:02:00,72.0,41.0,-100.00,East,95,12.0,16.0,33,0.00,,,-99.99,,2013-06-30 02:02:00,
2013-06-29 20:11:00,71.0,41.0,-100.00,ESE,102,12.0,17.0,33,0.00,,,-99.99,,2013-06-30 02:11:00,
2013-06-29 20:33:00,71.0,41.0,-100.00,East,100,12.0,17.0,34,0.00,,,-99.99,,2013-06-30 02:33:00,
2013-06-29 20:43:00,70.0,40.0,-100.00,East,99,12.0,19.0,34,0.00,,,-99.99,,2013-06-30 02:43:00,
2013-06-29 21:01:00,69.0,41.0,-100.00,ESE,116,10.0,14.0,36,0.00,,,-99.99,,2013-06-30 03:01:00,
2013-06-29 21:12:00,69.0,40.0,-100.00,ESE,119,7.0,11.0,36,0.00,,,-99.99,,2013-06-30 03:12:00,
2013-06-29 21:43:00,68.0,40.0,-100.00,SE,127,7.0,12.0,36,0.00,,,-99.99,,2013-06-30 03:43:00,
2013-06-29 21:53:00,67.0,41.0,-100.00,SE,133,7.0,11.0,38,0.00,,,-99.99,,2013-06-30 03:53:00,
2013-06-29 22:12:00,67.0,42.0,-100.00,SE,131,7.0,11.0,40,0.00,,,-99.99,,2013-06-30 04:12:00,
2013-06-29 22:33:00,66.0,42.0,-100.00,SE,143,10.0,14.0,43,0.00,,,-99.99,,2013-06-30 04:33:00,
2013-06-29 22:43:00,66.0,43.0,-100.00,SE,141,10.0,15.0,43,0.00,,,-99.99,,2013-06-30 04:43:00,
2013-06-29 22:53:00,66.0,43.0,-100.00,SE,143,10.0,14.0,43,0.00,,,-99.99,,2013-06-30 04:53:00,
2013-06-29 23:02:00,66.0,43.0,-100.00,SE,143,9.0,14.0,43,0.00,,,-99.99,,2013-06-30 05:02:00,
2013-06-29 23:12:00,66.0,43.0,-100.00,SE,143,9.0,13.0,43,0.00,,,-99.99,,2013-06-30 05:12:00,
2013-06-29 23:33:00,66.0,44.0,-100.00,SE,134,6.0,12.0,45,0.00,,,-99.99,,2013-06-30 05:33:00,
2013-06-29 23:43:00,65.0,44.0,-100.00,SE,138,7.0,12.0,46,0.00,,,-99.99,,2013-06-30 05:43:00,
2013-06-29 23:53:00,65.0,44.0,-100.00,SE,145,5.0,8.0,47,0.00,,,-99.99,,2013-06-30 05:53:00,